Location: Star Hoppers Observatory
(42.7905°N, 83.6127°W)
Time: 04:41:10
(UTC-04:00)

Daily predictions for brighter satellites

Satellite Brightness Start Highest point End
(mag) Time Altitude Azimuth Time Altitude Azimuth Time Altitude Azimuth
Lacrosse 4 Rocket 3.7 00:04:09 10° N 00:07:14 18° NE 00:09:37 13° E
Cosmos 2150 Rocket 4.4 00:05:24 20° SW 00:09:06 64° WNW 00:14:34 10° NNE
Cosmos 1898 Rocket 3.9 00:10:08 21° SW 00:13:29 58° WNW 00:18:38 10° NNE
Cosmos 2227 Rocket 2.3 00:12:57 43° SSE 00:14:31 59° ESE 00:20:06 10° NNE
Cosmos 1470 Rocket 3.7 00:14:54 43° SW 00:16:07 65° W 00:20:25 10° N
Cosmos 2333 Rocket 2.2 00:11:29 10° NNW 00:17:16 82° ENE 00:19:13 44° SSE
CZ-4B R/B 3.5 00:17:32 19° ENE 00:17:39 19° ENE 00:20:12 10° NNE
Cosmos 1933 Rocket 3.8 00:16:25 43° SW 00:17:44 66° W 00:22:12 10° N
Cosmos 1869 3.2 00:14:41 10° N 00:18:45 89° W 00:19:09 73° S
Cosmos 1703 Rocket 4.1 00:14:45 10° N 00:18:54 42° ENE 00:19:26 40° E
Cosmos 1125 Rocket 4.3 00:19:00 34° ESE 00:19:28 35° E 00:24:15 10° NE
Cosmos 1626 2.1 00:19:14 71° SW 00:19:29 76° W 00:23:16 10° N
Cosmos 2181 Rocket 4.3 00:14:30 10° N 00:20:48 59° E 00:23:08 38° SE
H-2A R/B 3.8 00:17:42 10° NE 00:20:52 26° E 00:20:52 26° E
Meteor 1-4 Rocket 4.1 00:19:02 10° NNW 00:22:16 27° W 00:22:56 25° WSW
SL-16 R/B 3.2 00:19:51 10° N 00:25:10 39° ENE 00:27:38 26° ESE
COSMOS 2428 3.9 00:23:35 10° NW 00:28:31 31° WSW 00:30:25 25° SW
Okean 1-7 4.0 00:24:37 10° N 00:28:31 33° ENE 00:28:55 32° E
COSMOS 2455 3.5 00:29:51 10° NNW 00:35:43 50° NE 00:38:28 29° ESE
Cosmos 1455 3.0 00:32:34 10° NNW 00:36:09 41° W 00:36:20 40° W
Cosmos 1689 Rocket 4.0 00:37:09 27° ENE 00:37:09 27° ENE 00:39:38 10° N
CZ-4C R/B 3.6 00:40:01 50° NE 00:40:01 50° NE 00:43:04 10° N
FALCON 9 R/B 3.0 00:25:47 10° W 00:41:18 47° SSW 00:42:43 42° SSE
SeaSat 1 2.5 00:41:22 53° SSW 00:42:14 63° WSW 00:47:09 10° NNW
Cosmos 2297 Rocket 2.1 00:41:01 51° S 00:42:19 70° ESE 00:47:57 10° NNE
NOSS 0 Rocket 4.2 00:37:43 10° NW 00:43:44 56° WSW 00:45:28 42° SSW
Terra 3.9 00:47:00 15° WSW 00:48:40 17° W 00:51:47 10° NW
Cosmos 2219 Rocket 2.9 00:48:06 10° NW 00:53:15 39° WSW 00:54:24 35° SW
Cosmos 468 4.5 00:51:38 10° NNW 00:57:00 77° WSW 00:57:59 59° S
Helios 1A Rocket 4.0 00:53:38 10° NNE 00:57:01 33° E 00:57:01 33° E
NOSS 3-1 (A) 4.4 00:53:18 10° WSW 00:59:03 46° NW 01:05:30 10° NNE
CZ-2C R/B 3.8 00:55:56 10° NE 01:00:22 27° E 01:00:49 27° ESE
GEOS 3 Rocket 3.7 01:00:14 53° SSW 01:00:58 58° WSW 01:06:06 10° NW
Cosmos 1933 3.7 00:58:09 10° NNW 01:02:04 55° W 01:02:04 55° W
Cosmos 372 Rocket 4.3 01:03:04 49° ESE 01:03:29 50° ESE 01:08:32 10° NNE
Cosmos 1980 4.2 00:59:49 10° NW 01:05:08 43° WSW 01:06:07 40° SW
BREEZE-M DEB (TANK) 3.7 00:55:54 10° WNW 01:05:13 53° N 01:07:21 21° E
Meteor 2-3 Rocket 3.9 01:05:45 49° SE 01:06:55 58° E 01:12:32 10° NNE
ERBS 4.0 01:09:14 29° NE 01:09:14 29° NE 01:11:05 10° NE
COS B Rocket 4.1 01:06:33 10° NNW 01:09:45 39° WNW 01:09:45 39° WNW
Meteor 2-10 Rocket 4.4 01:05:05 10° N 01:10:20 44° ENE 01:11:57 35° ESE
ASTEX 1 3.3 01:06:15 10° N 01:11:09 67° E 01:11:38 62° SE
Cosmos 2251 Rocket 4.4 01:12:32 10° N 01:17:36 42° ENE 01:19:22 32° ESE
Cosmos 2237 Rocket 3.0 01:13:38 10° NW 01:18:49 37° WSW 01:19:39 35° SW
ATLAS 2AS CENTAUR R/B 3.1 01:16:57 27° SW 01:21:31 78° NW 01:29:41 10° NE
ALOS 2 2.8 01:23:07 57° WSW 01:23:09 57° W 01:27:29 10° NNW
Cosmos 1892 3.6 01:25:17 41° ENE 01:25:17 41° ENE 01:28:20 10° NNE
Cosmos 389 Rocket 3.3 01:21:22 10° NNW 01:24:12 49° NW 01:24:12 49° NW
Cosmos 1869 Rocket 4.1 01:24:28 46° W 01:24:59 48° WNW 01:29:21 10° N
Cosmos 1782 4.0 01:25:18 10° N 01:28:56 33° ENE 01:28:58 33° ENE
Cosmos 1733 Rocket 3.5 01:29:42 51° E 01:29:43 51° E 01:34:03 10° NNE
Cosmos 1269 Rocket 4.4 01:24:42 10° NNW 01:29:48 48° WSW 01:30:21 46° SW
Geosat 3.9 01:28:39 10° NNE 01:33:43 84° WNW 01:34:39 60° SW
Coronas F rocket 4.1 01:35:40 17° NE 01:35:40 17° NE 01:36:30 10° NNE
Cosmos 1340 Rocket 3.2 01:37:51 55° ENE 01:37:51 55° ENE 01:41:16 10° NNE
Nadezhda 3 Rocket 4.2 01:35:03 10° N 01:41:12 61° E 01:43:13 41° SE
Cosmos 1610 Rocket 4.4 01:40:48 53° S 01:42:24 85° E 01:48:34 10° N
Cosmos 2074 Rocket 4.1 01:41:14 45° SW 01:43:09 67° W 01:49:28 10° N
In-Cosmos 22 Rocket 4.4 01:43:30 47° SW 01:44:55 62° WNW 01:50:38 10° N
CZ-4C R/B 3.9 01:39:16 10° NNW 01:45:48 42° NE 01:52:59 10° ESE
USA 238 DEB 3.9 01:39:11 10° NNW 01:46:14 71° NE 01:50:17 27° SE
Lacrosse 4 Rocket 1.8 01:41:58 10° NW 01:45:57 56° W 01:45:57 56° W
USA 238 3.9 01:39:17 10° NNW 01:46:20 70° NE 01:50:25 27° SE
ATLAS 3B R/B 2.7 01:39:58 10° NW 01:46:50 61° WSW 01:48:24 48° SSW
CZ-4B R/B 3.4 01:51:18 23° WNW 01:51:18 23° WNW 01:53:21 10° NW
Landsat 5 4.4 01:50:52 38° W 01:50:52 38° W 01:54:59 10° NNW
NOSS 2-3 (E) 4.0 01:55:10 57° SW 01:56:13 81° NW 02:01:59 10° NE
H-2A R/B 4.0 01:53:14 10° N 01:56:45 27° WNW 01:57:31 26° W
Cosmos 1825 3.8 01:58:09 25° E 01:58:09 25° E 02:01:05 10° NE
Cosmos 2227 Rocket 4.1 01:54:43 11° WSW 01:58:59 23° NW 02:03:30 10° N
Cosmos 1356 Rocket 3.4 02:00:18 73° NE 02:00:18 73° NE 02:04:06 10° NNE
Cosmos 2333 Rocket 4.2 01:57:48 10° WNW 02:00:44 14° W 02:01:13 14° WSW
Aureole 2 Rocket 3.9 01:57:46 10° NNW 01:59:28 30° NNW 01:59:28 30° NNW
Meteor 1-27 Rocket 4.1 01:55:54 10° N 02:01:43 58° ENE 02:03:41 39° SE
Cosmos 2154 Rocket 3.9 02:05:34 49° S 02:07:26 87° W 02:13:46 10° N
Cosmos 494 Rocket 4.0 02:03:23 10° NNW 02:08:41 79° ENE 02:09:55 53° SE
SL-16 R/B 3.1 02:04:10 10° NW 02:09:09 32° WSW 02:09:30 32° WSW
Cosmos 2227 4.1 02:08:04 56° SSW 02:09:22 88° WNW 02:15:04 10° NNE
Cosmos 2263 Rocket 3.6 02:08:18 23° ESE 02:09:30 25° ESE 02:14:01 10° NE
Cosmos 1862 4.0 02:10:02 44° E 02:10:02 44° E 02:13:48 10° NNE
Cosmos 1408 3.8 02:11:54 35° E 02:11:54 35° E 02:15:11 10° NNE
USA 234 3.5 02:06:54 10° ESE 02:13:22 68° NE 02:19:52 10° NW
Cosmos 1674 Rocket 3.7 02:12:58 10° NNW 02:17:19 59° W 02:17:23 59° W
Cosmos 44 3.6 02:17:14 52° SSE 02:17:57 57° ESE 02:23:18 10° NE
COSMOS 2455 3.8 02:16:18 10° NW 02:21:22 29° WSW 02:21:35 29° WSW
Cosmos 1975 Rocket 3.5 02:20:59 10° N 02:25:19 53° E 02:26:06 46° ESE
Cosmos 2297 Rocket 4.2 02:22:47 10° W 02:26:55 21° NW 02:31:07 10° N
Meteor 2-6 Rocket 4.4 02:22:38 10° NNW 02:28:20 62° W 02:29:46 48° SSW
Cosmos 1607 3.9 02:22:32 10° NNW 02:28:44 85° ENE 02:31:45 32° SE
Cosmos 1295 Rocket 4.5 02:26:49 44° S 02:28:56 78° E 02:35:17 10° N
Cosmos 1908 Rocket 3.4 02:31:58 70° WSW 02:32:15 74° W 02:36:36 10° N
Cosmos 2341 Rocket 4.1 02:32:24 43° SSW 02:34:32 69° W 02:40:56 10° N
Uosat 12 SS-18 rocket 4.5 02:34:12 47° WSW 02:35:23 64° NW 02:39:50 10° NNE
Cosmos 1943 3.3 02:30:26 10° NNW 02:36:08 71° ENE 02:38:54 31° SE
CZ-2C R/B 3.5 02:36:35 45° SW 02:37:54 55° W 02:43:30 10° NNW
Cosmos 44 Rocket 4.2 02:37:34 31° WSW 02:39:35 46° NW 02:44:38 10° NNE
Cosmos 921 Rocket 2.9 02:39:19 63° W 02:39:36 65° WNW 02:43:47 10° NNE
CZ-2C R/B 3.5 02:35:55 10° N 02:40:44 38° WNW 02:42:21 30° WSW
Cosmos 1606 3.1 02:37:57 10° NNW 02:41:25 53° WNW 02:41:25 53° WNW
Cosmos 1603 4.1 02:37:13 10° NW 02:42:36 45° WSW 02:43:23 42° SW
NOSS 3-4 (A) 3.9 02:40:57 39° SSE 02:42:57 52° ESE 02:49:17 10° NE
NOSS 3-4 (C) 3.9 02:41:03 38° SSE 02:43:03 51° ESE 02:49:21 10° NE
Sich 1 Rocket 4.2 02:43:04 40° W 02:43:36 42° WNW 02:47:54 10° N
NOSS 3-2 (A) 4.1 02:38:12 10° NW 02:45:40 76° NE 02:53:42 10° SE
Landsat 4 4.3 02:47:13 44° ESE 02:47:55 51° ENE 02:51:36 10° N
Cosmos 2084 Rocket 3.7 02:53:22 45° WNW 02:53:53 48° NW 02:57:36 10° NNE
Cosmos 1959 Rocket 4.4 02:55:35 39° S 02:58:06 89° W 03:04:23 10° N
SL-08 R/B 4.2 02:56:47 21° SE 02:59:46 48° ENE 03:04:30 10° N
SL-8 Rocket 4.0 02:59:57 39° SSW 03:02:25 70° W 03:08:45 10° N
Cosmos 1238 Rocket 4.1 03:00:10 10° NNW 03:03:42 28° W 03:03:42 28° W
Cosmos 2218 Rocket 3.9 03:01:44 39° SSW 03:04:16 81° W 03:10:37 10° N
Resurs 1-4 Rocket 4.5 03:03:00 10° ENE 03:05:35 14° E 03:08:09 10° ESE
Cosmos 1867 3.9 03:04:39 10° NNW 03:10:08 68° NE 03:15:33 10° SE
GP-B 4.5 03:08:47 10° NNE 03:12:50 33° E 03:15:17 19° SE
Cosmos 1242 Rocket 2.9 03:10:03 10° N 03:13:30 57° E 03:14:10 47° SE
BREEZE-M DEB (TANK) 3.7 03:03:22 10° WNW 03:13:44 60° SW 03:16:13 22° SE
RESURS DK-1 2.9 03:15:39 40° SSE 03:16:33 48° ESE 03:20:34 10° NE
ATLAS 2A CENTAUR R/B 4.0 03:19:13 25° S 03:20:46 26° SSE 03:35:55 10° ESE
AQUA 4.2 03:16:09 10° NNE 03:20:51 58° E 03:22:50 33° SSE
NPP 3.7 03:18:00 10° NNE 03:23:25 76° ESE 03:25:55 33° S
Cosmos 2366 rocket 4.0 03:20:56 34° SSW 03:23:37 66° W 03:29:47 10° N
Tiangong 1 1.9 03:24:45 39° ESE 03:24:45 39° ESE 03:26:49 10° ESE
Cosmos 1812 4.0 03:21:13 10° N 03:24:52 38° ENE 03:27:13 19° SE
Okean 2 Rocket 3.9 03:26:56 33° WSW 03:28:01 38° WNW 03:32:15 10° N
Cosmos 1624 Rocket 4.0 03:28:03 35° S 03:30:17 74° ESE 03:35:31 10° NNE
Cosmos 1825 3.8 03:33:05 21° W 03:33:33 21° WNW 03:36:31 10° NNW
CZ-4C R/B 3.0 03:27:43 10° NW 03:34:39 53° WSW 03:40:36 17° S
ERS-2 2.1 03:31:58 10° NNE 03:35:43 82° ESE 03:36:43 47° S
ADEOS 4.0 03:32:02 10° NNE 03:37:13 58° E 03:40:15 24° S
Meteor 2-19 Rocket 4.4 03:36:44 30° SSW 03:40:00 76° W 03:46:12 10° N
Cosmos 1727 Rocket 4.2 03:36:23 10° NNW 03:42:25 52° W 03:45:30 28° SSW
Meteor 1-25 Rocket 4.2 03:42:58 27° S 03:46:15 85° E 03:52:04 10° N
ARIANE 5 R/B 3.3 03:45:04 10° NNE 03:49:50 44° E 03:53:32 16° SSE
CZ-2D R/B 3.5 03:45:58 10° NNE 03:50:55 35° E 03:55:50 10° SSE
COSMOS 2406 3.4 03:45:44 10° NNW 03:51:32 74° ENE 03:57:17 10° SSE
Cosmos 1452 Rocket 4.3 03:48:07 19° SSE 03:51:35 44° ESE 03:56:33 10° NNE
Cosmos 1844 Rocket 3.8 03:48:04 16° SSE 03:52:02 37° ESE 03:57:13 10° NE
Cosmos 1184 Rocket 4.1 03:51:54 26° W 03:52:22 28° WNW 03:55:20 10° NNW
Cosmos 2263 Rocket 2.7 03:50:00 25° WSW 03:53:05 50° WNW 03:58:36 10° NNE
Iridium 4 Rocket 3.7 03:49:15 10° NNW 03:53:34 44° W 03:55:32 29° SW
OTV 4 2.3 03:57:04 18° SE 03:57:04 18° SE 03:58:10 10° SE
USA 234 3.7 03:51:13 13° SSE 03:56:36 37° SW 04:02:36 10° WNW
CBERS-1 4.1 03:52:05 10° N 03:57:11 65° WNW 04:00:00 26° SSW
USA 161 1.6 03:56:54 36° SSE 03:57:52 70° ENE 04:00:43 10° N
H-2A R/B 4.3 03:56:59 21° SSW 03:59:32 24° S 04:17:17 10° SE
Abrixas rocket 2.4 04:01:03 41° SSW 04:01:56 57° SSE 04:05:14 10° ENE
Cosmos 2278 Rocket 4.0 04:01:30 10° SSE 04:05:56 24° ESE 04:10:24 10° NE
Cosmos 1300 Rocket 3.5 04:07:39 25° SSW 04:10:05 75° W 04:14:27 10° N
NOSS 3-2 (C) 4.3 04:03:44 10° NW 04:10:52 45° WSW 04:18:24 10° S
Cosmos 1536 4.3 04:07:28 10° SSE 04:11:09 34° E 04:14:51 10° NNE
IRS-1C 4.3 04:06:40 10° N 04:11:56 60° WNW 04:15:22 22° SW
Cosmos 724 4.5 04:09:52 10° NNW 04:16:01 85° ENE 04:22:13 10° SSE
CENTAUR R/B 3.4 04:08:53 10° NNW 04:16:39 70° NE 04:24:55 10° SE
ATLAS 5 CENTAUR R/B 4.3 04:14:47 10° NNW 04:19:59 32° NE 04:25:31 10° ESE
Cosmos 1190 Rocket 4.2 04:15:16 10° NNW 04:20:17 48° WSW 04:24:31 14° S
SL-16 R/B 2.6 04:15:03 10° SSE 04:21:19 89° ENE 04:27:34 10° NNW
Cosmos 1934 Rocket 4.0 04:16:09 14° S 04:21:35 89° E 04:27:48 10° N
Gbstr 26 Del rocket 3.9 04:20:43 19° S 04:22:44 30° SE 04:26:03 10° ENE
UNKNOWN OBJECT B 3.8 04:22:20 10° NNE 04:26:18 47° E 04:30:14 10° S
Cosmos 2056 Rocket 4.3 04:23:52 18° SW 04:27:20 40° WNW 04:32:17 10° N
Okean 1-7 Rocket 3.8 04:23:33 10° NNW 04:28:02 56° W 04:31:45 15° S
Spot 4 Rocket 4.3 04:23:14 10° N 04:28:17 58° WNW 04:32:06 17° SW
Cosmos 1140 Rocket 3.8 04:30:15 10° NNW 04:35:24 70° ENE 04:40:30 10° SSE
Meteor 1-19 Rocket 4.4 04:30:03 10° N 04:35:52 86° E 04:41:43 10° S
Cosmos 489 Rocket 4.4 04:31:06 10° NNW 04:37:20 71° WSW 04:43:30 10° S
Cosmos 407 Rocket 3.9 04:34:14 10° NW 04:39:01 40° WSW 04:43:51 10° S
Okean O Rocket 2.8 04:36:27 10° NNE 04:40:32 38° E 04:44:34 10° SSE
NOSS 2-2 (D) 4.3 04:39:17 13° S 04:42:48 46° ESE 04:47:19 10° NE
Cosmos 676 Rocket 4.2 04:38:16 10° NNW 04:43:17 50° WSW 04:48:16 10° S
Okean 1 Rocket 3.9 04:42:19 16° SW 04:45:19 36° WNW 04:49:27 10° N
Meteor 1-11 Rocket 3.9 04:39:52 11° SSW 04:45:30 76° W 04:51:30 10° N
SL-27 R/B 3.3 04:42:23 10° NW 04:45:42 34° WSW 04:48:44 12° SSW
Resurs 1-4 Rocket 2.1 04:40:41 10° N 04:46:01 78° WNW 04:51:14 10° SSW
EO 1 Del DPAF 3.6 04:44:05 10° S 04:47:49 46° W 04:51:35 10° NNW
IRS-1D 3.7 04:44:34 10° N 04:49:36 57° WNW 04:54:11 12° SSW
Cosmos 1605 Rocket 4.0 04:43:31 10° S 04:49:39 79° W 04:55:56 10° N
Cosmos 1821 Rocket 4.5 04:45:49 13° SSW 04:51:15 47° WNW 04:57:25 10° N
Meteor 1-13 Rocket 4.5 04:45:51 10° NNW 04:51:18 51° W 04:56:50 10° SSW
Cosmos 2123 Rocket 4.1 04:45:13 10° NNW 04:51:28 62° W 04:57:40 10° S
RESURS DK-1 4.4 04:52:01 10° W 04:54:53 18° NW 04:57:46 10° N
NOSS 2-2 (C) 3.8 04:53:24 12° SSW 04:57:13 66° ESE 05:01:57 10° NE
CZ-4B R/B 4.5 04:54:19 10° NNE 04:58:36 39° E 05:02:48 10° SSE
Cosmos 1400 Rocket 2.8 04:54:49 10° S 04:58:41 79° E 05:02:37 10° NNE
UNK 4.2 04:55:36 10° S 04:59:58 42° W 05:04:22 10° NNW
Tiangong 1 2.0 04:57:27 10° W 05:00:07 27° SSW 05:02:47 10° SE
Cosmos 1633 2.7 05:01:38 10° SSW 05:05:11 59° W 05:08:47 10° N
SME Rocket 3.4 05:01:55 10° S 05:05:28 38° W 05:09:10 10° NNW
CZ-2D R/B 3.3 05:05:00 10° N 05:08:58 76° WNW 05:12:58 10° SSW
ASTRO F (AKARI) 4.4 05:06:46 10° SSE 05:10:04 82° WSW 05:13:34 10° NNW
Cosmos 1455 Rocket 3.1 05:08:51 10° S 05:13:19 89° E 05:17:48 10° N
Okean 2 3.3 05:10:20 10° NNW 05:14:26 73° W 05:18:30 10° S
ADEOS II 4.2 05:11:17 10° NE 05:15:36 25° E 05:19:52 10° SSE
BREEZE-M DEB (TANK) 3.3 05:13:19 10° SSW 05:15:40 24° SE 05:18:22 10° E
Meteor 1-23 Rocket 4.4 05:12:28 10° NNW 05:18:07 60° W 05:23:40 10° S
Cosmos 1315 Rocket 2.9 05:17:36 10° S 05:21:43 86° E 05:25:48 10° N
Cosmos 1356 3.9 05:19:57 10° SSW 05:23:24 48° WNW 05:26:52 10° N
NOSS 2-2 (E) 3.8 05:19:40 10° SW 05:23:52 66° NW 05:28:53 10° NNE
Cosmos 1461 3.3 05:19:24 10° SSW 05:24:07 75° ESE 05:28:45 10° NE
Cosmos 1025 Rocket 4.0 05:20:59 10° NNW 05:24:38 28° W 05:28:18 10° SSW
Cosmos 1802 Rocket 4.3 05:20:39 10° S 05:26:45 71° E 05:32:52 10° NNE
